Regional Weather Roundup
Issued by NWS

Home | Current Version | Previous Version | Graphics & Text | Print | Product List | Glossary On
Versions: 1 2 3 4 5 6 7 8 9 10 11 12 13 14 15 16 17 18 19 20 21 22 23 24 25 26 27 28 29 30 31 32 33 34 35 36 37 38 39 40 41 42 43 44 45 46 47 48 49 50
000
ASUS43 KOAX 291002
RWRNE

WEATHER ROUNDUP FOR NEBRASKA
NATIONAL WEATHER SERVICE OMAHA NE
500 AM CDT SAT AUG 29 2015

NOTES: SATELLITE DATA IS BEING USED TO AUGMENT CLOUD COVER ABOVE
       12000 FEET.
       "FAIR" INDICATES FEW OR NO CLOUDS BELOW 12,000 FEET WITH NO
       SIGNIFICANT WEATHER AND/OR OBSTRUCTIONS TO VISIBILITY.

  * THESE STATIONS DO NOT REPORT WEATHER SUCH AS RAIN...SNOW OR FOG.

NEZ001>004-019>022-054>056-291100-
NEBRASKA PANHANDLE

CITY           SKY/WX    TMP DP  RH WIND       PRES   REMARKS
SCOTTSBLUFF    CLEAR     53  49  86 N3        30.17S
ALLIANCE       CLEAR     48  45  89 SW7       30.16R
CHADRON        CLEAR     54  47  77 CALM      30.09F
KIMBALL        CLEAR     53  43  69 W8        30.22S
SIDNEY         CLEAR     53  46  77 W7        30.20S
$$

NEZ057>060-069>072-079>082-291100-
SOUTHWEST NEBRASKA

CITY           SKY/WX    TMP DP  RH WIND       PRES   REMARKS
NORTH PLATTE   FOG       52  51  97 NW6       30.12S VSB 3/4
IMPERIAL       CLEAR     57  54  89 W5        30.15S
MCCOOK         CLEAR     57  55  93 MISG      30.11S
$$

NEZ005>010-023>029-035>040-094-291100-
NORTH CENTRAL NEBRASKA

CITY           SKY/WX    TMP DP  RH WIND       PRES   REMARKS
VALENTINE      CLEAR     56  55  97 W7        30.06S
AINSWORTH      CLEAR     60  59  97 SW5       30.07S
BROKEN BOW     CLEAR     56  53  90 CALM      30.08S
O`NEILL        FOG       57  57  99 CALM      30.06S VSB 1/2
ORD            FOG       53  53 100 CALM      30.05F VSB 1/4
$$

NEZ041-046>049-061>064-073>077-083>087-291100-
SOUTH CENTRAL NEBRASKA

CITY           SKY/WX    TMP DP  RH WIND       PRES   REMARKS
GRAND ISLAND   CLOUDY    58  57  97 CALM      30.06S FOG
AURORA         MOCLDY    57  57 100 N3        30.05S FOG
HASTINGS       MOCLDY    55  55 100 CALM      30.06R
KEARNEY *      CLEAR     57  54  88 NW6       30.07S
YORK           CLOUDY    59  59 100 N10       30.04F
$$

NEZ011>018-030>034-042>045-291100-
NORTHEAST NEBRASKA

CITY           SKY/WX    TMP DP  RH WIND       PRES   REMARKS
NORFOLK        CLOUDY    60  58  92 CALM      30.05R
ALBION         FOG       57  56  94 CALM      30.05F VSB 1/4
BLAIR          CLOUDY    60  58  94 N9        30.01R
COLUMBUS *     CLOUDY   N/A N/A N/A NE7       30.04S
FREMONT        CLOUDY    61  59  92 N5        30.02S
TEKAMAH        CLOUDY    62  60  93 N7        30.01S
$$

NEZ050>053-065>068-078-088>093-291100-
SOUTHEAST NEBRASKA

CITY           SKY/WX    TMP DP  RH WIND       PRES   REMARKS
LINCOLN        CLOUDY    62  61  96 N8        30.02R FOG
OMAHA EPPLEY   CLOUDY    62  61  96 N10       30.00R
BEATRICE       CLOUDY    63  61  93 N10       30.00S
FALLS CITY     CLOUDY    65  63  93 N9        29.96S
NEBRASKA CITY  CLOUDY    63  62  99 N12       29.99R FOG
PLATTSMOUTH    CLOUDY    62  60  95 N5        30.00R
$$

NEZ044-045-051>053-067-291100-
OMAHA AREA

CITY           SKY/WX    TMP DP  RH WIND       PRES   REMARKS
OMAHA EPPLEY   CLOUDY    62  61  96 N10       30.00R
BLAIR          CLOUDY    60  58  94 N9        30.01R
FREMONT        CLOUDY    61  59  92 N5        30.02S
OFFUTT AFB     CLOUDY    63  60  92 N8        29.99R FOG
PLATTSMOUTH    CLOUDY    62  60  95 N5        30.00R
WAHOO          CLOUDY    61  60  96 N7        30.01S FOG
$$




USA.gov is the U.S. government's official web portal to all federal, state and local government web resources and services.